Stations météo

réclame
Mon MeteoGroup
Plymouth, Grande-Bretagne (3827): Température de l'air & dewpoint: 16.04.2018 23:00:00 - 22.04.2018 23:00:00 (BST)Plymouth, Grande-Bretagne (3827): Vitesse du vent & gusts: 16.04.2018 23:00:00 - 22.04.2018 23:00:00 (BST)Plymouth, Grande-Bretagne (3827): Direction du vent: 16.04.2018 23:00:00 - 22.04.2018 23:00:00 (BST)Plymouth, Grande-Bretagne (3827): reduced air pressure: 16.04.2018 23:00:00 - 22.04.2018 23:00:00 (BST)Plymouth, Grande-Bretagne (3827): visibility: 16.04.2018 23:00:00 - 22.04.2018 23:00:00 (BST)Plymouth, Grande-Bretagne (3827): Quantités de précipitations: 16.04.2018 23:00:00 - 22.04.2018 23:00:00 (BST)
Date & Time tt [°C] td [°C] ff [km/h] ff [knt] fx [km/h] fx [knt] dd ppp [hPa] vv [km] rr [mm]
22.04.2018 23:00:00 - - - - - - - - - -
22.04.2018 22:00:00 8,6 6,5 15 8 - - W 1015,7 28 0,0
22.04.2018 21:00:00 10,1 6,1 15 8 - - WNW 1014,9 27 0,0
22.04.2018 20:00:00 11,8 5,7 13 7 - - WNW 1014,0 45 0,0
22.04.2018 19:00:00 13,3 6,6 16 9 - - WNW 1013,2 27 0,0
22.04.2018 18:00:00 14,4 9,3 15 8 - - WNW 1012,6 30 0,0
22.04.2018 17:00:00 13,9 9,9 18 10 - - WNW 1012,2 24 0,0
22.04.2018 16:00:00 14,7 12,0 16 9 - - WSW 1011,8 17 0,0
22.04.2018 15:00:00 13,3 11,1 15 8 - - SSW 1012,2 13 0,0
22.04.2018 14:00:00 12,2 10,2 16 9 - - SW 1012,1 12 0,0
22.04.2018 13:00:00 13,5 9,1 21 11 - - SW 1011,6 26 0,0
22.04.2018 12:00:00 14,6 9,9 21 11 - - SW 1011,2 11 0,0
22.04.2018 11:00:00 11,8 10,0 18 10 - - SSW 1011,3 1,3 0,0
22.04.2018 10:00:00 13,7 10,5 8 4 - - SSW 1010,9 6 0,0
22.04.2018 09:00:00 12,3 11,8 13 7 - - W 1010,9 2,7 0,0
22.04.2018 08:00:00 10,6 10,4 2 1 - - NW 1010,6 1,4 0,0
22.04.2018 07:00:00 10,3 10,1 9 5 - - SW 1010,5 0,6 0,0
22.04.2018 06:00:00 9,3 8,8 5 3 - - E 1010,1 1,1 0,0
22.04.2018 05:00:00 9,5 8,8 4 2 - - E 1010,6 1,4 0,0
22.04.2018 04:00:00 10,2 9,5 8 4 - - ESE 1011,1 2,4 0,0
22.04.2018 03:00:00 9,9 9,1 4 2 - - SSE 1011,4 2,5 0,0
22.04.2018 02:00:00 10,2 9,0 5 3 - - SSW 1012,0 3,0 0,0
22.04.2018 01:00:00 11,3 9,4 5 3 - - E 1012,2 6 0,0
22.04.2018 00:00:00 12,1 9,7 4 2 - - ENE 1012,8 7 0,0
21.04.2018 23:00:00 12,8 9,9 5 3 - - E 1013,4 8 0,0
21.04.2018 22:00:00 13,8 9,8 15 8 - - SE 1013,5 11 0,0
21.04.2018 21:00:00 14,9 10,1 9 5 - - SSE 1013,4 15 0,0
21.04.2018 20:00:00 16,9 11,1 5 3 - - E 1013,0 11 0,0
21.04.2018 19:00:00 18,3 10,7 26 14 48 26 SE 1013,2 15 0,0
21.04.2018 18:00:00 19,7 12,7 22 12 - - ESE 1013,9 18 0,0
21.04.2018 17:00:00 20,5 12,8 21 11 - - E 1014,2 12 0,2
21.04.2018 16:00:00 21,1 12,4 13 7 - - E 1015,4 12 0,0
21.04.2018 15:00:00 22,5 13,9 11 6 - - E 1016,1 10 0,0
21.04.2018 14:00:00 22,0 13,4 16 9 - - E 1016,6 14 0,0
21.04.2018 13:00:00 21,0 12,7 11 6 - - E 1017,6 16 0,0
21.04.2018 12:00:00 19,9 12,2 15 8 - - E 1018,2 18 0,0
21.04.2018 11:00:00 17,4 11,5 21 11 - - E 1018,8 25 0,0
21.04.2018 10:00:00 16,3 9,8 18 10 - - E 1019,0 23 0,0
21.04.2018 09:00:00 15,3 9,9 15 8 - - E 1019,4 14 0,0
21.04.2018 08:00:00 11,2 7,9 9 5 - - NE 1020,1 22 0,0
21.04.2018 07:00:00 9,3 6,9 8 4 - - ENE 1020,4 23 0,0
21.04.2018 06:00:00 8,7 6,3 4 2 - - NNE 1020,5 16 0,0
21.04.2018 05:00:00 8,9 6,4 4 2 - - NE 1020,9 27 0,0
21.04.2018 04:00:00 8,9 6,8 5 3 - - NNE 1021,4 17 0,0
21.04.2018 03:00:00 9,2 6,4 2 1 - - W 1022,0 30 0,0
21.04.2018 02:00:00 9,5 5,2 5 3 - - NW 1022,4 18 0,0
21.04.2018 01:00:00 10,0 5,2 8 4 - - NW 1022,8 28 0,0
21.04.2018 00:00:00 10,5 6,2 8 4 - - WNW 1023,2 40 0,0
20.04.2018 23:00:00 11,3 7,8 8 4 - - WNW 1023,4 21 0,0
20.04.2018 22:00:00 13,1 7,8 8 4 - - NW 1023,8 45 0,0
20.04.2018 21:00:00 15,3 7,6 8 4 - - N 1023,6 19 0,0
20.04.2018 20:00:00 17,7 4,2 13 7 - - N 1023,1 23 0,0
20.04.2018 19:00:00 19,6 3,4 16 9 - - N 1023,0 28 0,0
20.04.2018 18:00:00 20,7 8,4 15 8 - - NNW 1023,0 17 0,0
20.04.2018 17:00:00 21,4 9,6 15 8 - - NNW 1023,1 45 0,0
20.04.2018 16:00:00 21,6 11,6 8 4 - - WSW 1023,6 17 0,0
20.04.2018 15:00:00 20,1 11,5 8 4 - - SW 1024,1 22 0,0
20.04.2018 14:00:00 19,8 10,3 8 4 - - WSW 1024,4 19 0,0
20.04.2018 13:00:00 19,6 11,6 9 5 - - W 1024,9 21 0,0
20.04.2018 12:00:00 18,7 11,6 9 5 - - NW 1025,1 20 0,0
20.04.2018 11:00:00 16,5 10,2 11 6 - - NNW 1025,1 24 0,0
20.04.2018 10:00:00 14,0 9,5 15 8 - - N 1025,1 19 0,0
20.04.2018 09:00:00 11,9 9,2 13 7 - - NNW 1025,0 21 0,0
20.04.2018 08:00:00 10,1 8,5 9 5 - - NNW 1024,9 10 0,0
20.04.2018 07:00:00 8,9 7,8 9 5 - - NNW 1024,6 23 0,0
20.04.2018 06:00:00 8,7 7,8 8 4 - - NNW 1024,3 27 0,0
20.04.2018 05:00:00 9,1 8,4 9 5 - - NNW 1024,3 35 0,0
20.04.2018 04:00:00 9,6 8,9 9 5 - - NNW 1024,6 17 0,0
20.04.2018 03:00:00 10,2 9,6 13 7 - - NNW 1024,6 15 0,0
20.04.2018 02:00:00 10,6 10,1 15 8 - - NNW 1024,6 11 0,0
20.04.2018 01:00:00 11,0 10,3 9 5 - - N 1024,6 9 0,0
20.04.2018 00:00:00 11,6 10,5 9 5 - - NNW 1024,5 8 0,0
19.04.2018 23:00:00 12,3 10,8 11 6 - - NW 1024,5 14 0,0
19.04.2018 22:00:00 13,2 11,0 8 4 - - NW 1024,5 19 0,0
19.04.2018 21:00:00 14,9 11,8 9 5 - - NNW 1024,3 23 0,0
19.04.2018 20:00:00 17,1 11,9 11 6 - - N 1023,7 24 0,0
19.04.2018 19:00:00 17,7 12,6 9 5 - - W 1023,5 19 0,0
19.04.2018 18:00:00 17,4 11,7 13 7 - - SW 1024,0 11 0,0
19.04.2018 17:00:00 18,3 10,9 16 9 - - SSW 1023,7 24 0,0
19.04.2018 16:00:00 19,5 11,2 13 7 - - SSW 1023,7 18 0,0
19.04.2018 15:00:00 19,5 12,2 8 4 - - SSW 1024,2 27 0,0
19.04.2018 14:00:00 18,1 11,9 9 5 - - SSW 1024,4 12 0,0
19.04.2018 13:00:00 18,0 11,9 11 6 - - SW 1024,5 13 0,0
19.04.2018 12:00:00 16,1 11,3 15 8 - - SSW 1024,5 8 0,0
19.04.2018 11:00:00 17,8 12,1 8 4 - - SW 1023,9 6 0,0
19.04.2018 10:00:00 15,1 10,6 4 2 - - NNW 1023,8 15 0,0
19.04.2018 09:00:00 12,0 9,7 2 1 - - NW 1023,9 13 0,0
19.04.2018 08:00:00 9,5 8,6 4 2 - - W 1023,8 8 -
19.04.2018 07:00:00 8,6 7,7 4 2 - - ENE 1023,1 8 -
19.04.2018 06:00:00 8,6 7,8 9 5 - - E 1022,8 7 -
19.04.2018 05:00:00 8,4 7,7 2 1 - - WNW 1022,8 6 -
19.04.2018 04:00:00 8,8 7,0 4 2 - - W 1022,5 11 -
19.04.2018 03:00:00 10,1 8,0 4 2 - - SE 1022,2 13 -
19.04.2018 02:00:00 11,7 8,9 15 8 - - E 1022,1 13 0,0
19.04.2018 01:00:00 11,8 8,4 9 5 - - E 1022,6 16 0,0
19.04.2018 00:00:00 12,0 8,8 11 6 - - E 1022,6 13 0,0
18.04.2018 23:00:00 12,8 9,1 11 6 - - E 1022,4 16 0,0
18.04.2018 22:00:00 14,1 9,0 9 5 - - SE 1022,6 14 0,0
18.04.2018 21:00:00 14,8 9,4 21 11 - - ESE 1021,7 14 0,0
18.04.2018 20:00:00 15,7 10,0 18 10 - - E 1021,6 21 0,0
18.04.2018 19:00:00 17,7 10,0 21 11 - - E 1021,4 10 0,0
18.04.2018 18:00:00 18,7 10,2 22 12 - - E 1021,8 19 0,0
18.04.2018 17:00:00 19,3 9,9 26 14 46 25 E 1022,0 21 0,0
18.04.2018 16:00:00 20,5 10,1 26 14 48 26 ESE 1022,4 12 0,0
18.04.2018 15:00:00 20,7 10,1 22 12 52 28 ESE 1023,1 13 0,0
18.04.2018 14:00:00 20,0 9,1 29 16 48 26 ESE 1023,3 35 0,0
18.04.2018 13:00:00 18,1 10,0 26 14 - - ESE 1023,8 45 0,0
18.04.2018 12:00:00 18,0 10,8 26 14 46 25 SE 1024,3 11 0,0
18.04.2018 11:00:00 17,5 11,2 29 16 46 25 SE 1024,6 18 0,0
18.04.2018 10:00:00 16,7 11,3 21 11 - - SE 1024,8 21 0,0
18.04.2018 09:00:00 15,2 10,6 11 6 - - ESE 1025,1 13 0,0
18.04.2018 08:00:00 12,8 10,2 11 6 - - SE 1025,1 18 0,0
18.04.2018 07:00:00 12,4 9,6 26 14 - - S 1024,9 19 0,0
18.04.2018 06:00:00 11,8 9,7 26 14 - - S 1024,6 10 0,0
18.04.2018 05:00:00 11,3 10,6 28 15 - - S 1024,4 6 0,0
18.04.2018 04:00:00 11,3 10,8 35 19 57 31 SSW 1024,2 4,6 0,0
18.04.2018 03:00:00 11,7 10,7 35 19 54 29 S 1023,6 8 0,0
18.04.2018 02:00:00 11,7 10,7 41 22 61 33 S 1022,9 9 0,0
18.04.2018 01:00:00 11,9 10,7 39 21 54 29 S 1022,7 8 0,0
18.04.2018 00:00:00 11,6 10,5 35 19 54 29 S 1022,4 6 0,0
17.04.2018 23:00:00 11,6 10,6 39 21 54 29 S 1021,9 6 0,0
17.04.2018 22:00:00 11,5 10,5 41 22 57 31 S 1021,4 6 0,0
17.04.2018 21:00:00 11,4 10,6 41 22 59 32 S 1020,6 5 0,0
17.04.2018 20:00:00 11,1 10,4 39 21 52 28 S 1019,9 3,5 0,2
17.04.2018 19:00:00 11,3 10,4 39 21 57 31 S 1019,6 5 0,0
17.04.2018 18:00:00 11,5 10,5 46 25 65 35 S 1018,9 5 0,0
17.04.2018 17:00:00 11,4 10,5 44 24 68 37 S 1018,6 5 0,0
17.04.2018 16:00:00 11,7 10,6 46 25 67 36 S 1018,1 7 0,0
17.04.2018 15:00:00 11,7 10,5 42 23 72 39 S 1017,8 6 0,0
17.04.2018 14:00:00 11,6 10,3 52 28 74 40 S 1017,1 7 0,0
17.04.2018 13:00:00 11,7 10,2 52 28 70 38 S 1016,4 7 0,0
17.04.2018 12:00:00 11,2 10,5 44 24 68 37 S 1016,0 3,5 0,4
17.04.2018 11:00:00 11,0 10,0 54 29 74 40 S 1015,4 5 0,4
17.04.2018 10:00:00 11,9 9,1 52 28 72 39 S 1015,1 9 0,0
17.04.2018 09:00:00 11,5 8,8 50 27 65 35 S 1014,5 8 0,0
17.04.2018 08:00:00 11,1 8,1 44 24 63 34 S 1013,9 8 0,0
17.04.2018 07:00:00 10,8 7,5 41 22 61 33 S 1013,6 9 0,0
17.04.2018 06:00:00 10,8 7,0 31 17 54 29 S 1013,3 11 0,0
17.04.2018 05:00:00 10,9 7,2 29 16 54 29 S 1013,5 11 0,0
17.04.2018 04:00:00 10,5 7,9 31 17 55 30 SSE 1013,6 9 0,0
17.04.2018 03:00:00 10,5 8,2 29 16 48 26 SSE 1013,6 9 0,0
17.04.2018 02:00:00 10,5 8,2 29 16 54 29 SSE 1013,9 10 0,0
17.04.2018 01:00:00 10,6 8,2 31 17 52 28 SSE 1013,8 8 0,0
17.04.2018 00:00:00 10,5 8,0 31 17 57 31 SSE 1013,8 12 0,0
16.04.2018 23:00:00 10,7 8,0 29 16 50 27 SSE 1013,8 8 0,0

tt = Température de l'air
td = dewpoint
ff = Vitesse du vent
fx = gusts
dd = Direction du vent
ppp = reduced air pressure
vv = visibility
rr = Quantités de précipitations

stations d'obs. à proximité